Location: Elstree
(51.6403°N, 0.2969°W)
Time: 18:59:46
(UTC+00:00)

USA 307 - Pass Details

Date: 03 March 2021
Orbit: 567 x 577 km, 54.0° (Epoch: 16 April)

Event Time Altitude Azimuth Distance (km) Brightness Sun altitude
Rises 18:14:40 0° 257° (WSW) 2,784 8.7 -5.4°
Reaches altitude 10° 18:16:55 10° 259° (W) 1,885 7.4 -5.7°
Maximum altitude 18:21:13 76° 346° (NNW) 597 3.0 -6.4°
Drops below altitude 10° 18:25:30 10° 72° (ENE) 1,881 4.9 -7.0°
Enters shadow 18:25:53 - 73° (ENE) 2,033 5.1 -7.1°
